Location: *
(58.4167°N, 22.5000°E)
Time: 08:54:59
(UTC+00:00)

Cosmos 2221 - Pass Details

Date: 22 September 2019
Orbit: 592 x 617 km, 82.5° (Epoch: 17 October)

Event Time Altitude Azimuth Distance (km) Brightness Sun altitude
Exits shadow 23:18:32 33° 1° (N) 1,016 4.1 -30.4°
Drops below altitude 10° 23:21:02 10° 10° (N) 1,955 6.0 -30.3°
Sets 23:23:15 0° 13° (NNE) 2,859 7.2 -30.2°
